"startDT [UTC]","vpos","CH4 [ppm]","stdev(CH4) [ppm]","CO2 [ppm]","stdev(CO2) [ppm]","H2O_reported [%]","stdev(H2O_reported)","CavityPressure [torr]","CavityTemp [C]","OutletValve","CH4_dry [ppm]","CO2_dry [ppm]","DasTemp [C]","EtalonTemp [C]","WarmBoxTemp [C]","MPVPosition","T_ECpre [C]","T_EC1 [C]","T_EC2 [C]","p_inlet [hPa]","p_in [hPa]","p_out [hPa]","T_inlet [C]","RH_inlet [%]","dwpt_inlet [C]","T_vent [C]","RH_vent [%]","dwpt_vent [C]","flow_vent [l min-1]","flow_inlet [l min-1]","dwpt_sample [C]","T_room [C]"
2016-12-24 00:00:00,0.0,1.97542,0.00036,411.960,0.025,0.0467,0.0018,139.998,45.000,31781.00086,1.97632,412.191,34.000,45.072,45.000,0.00,0.06,-272.88,-272.92,-4,536,-949,19.2,1.7,-32.9,19.6,1.8,-32.3,0.47,1.93,-21.2,25.9
2016-12-24 00:01:00,0.0,1.97525,0.00033,411.938,0.036,0.0471,0.0011,139.999,45.000,31782.29539,1.97616,412.172,34.000,45.072,45.000,0.00,0.06,-272.88,-272.92,-4,536,-949,19.2,1.7,-32.9,19.6,1.8,-32.3,0.47,1.93,-21.3,25.9
2016-12-24 00:02:00,0.0,1.97532,0.00046,411.935,0.041,0.0469,0.0010,139.999,45.000,31781.85763,1.97624,412.166,34.002,45.072,45.000,0.00,0.06,-272.87,-272.91,-4,536,-949,19.2,1.7,-32.9,19.6,1.8,-32.3,0.47,1.92,-21.2,25.9
2016-12-24 00:03:00,0.0,1.97555,0.00037,411.969,0.030,0.0469,0.0017,140.000,45.000,31780.56379,1.97644,412.202,34.000,45.072,45.000,0.00,0.06,-272.87,-272.91,-4,536,-949,19.2,1.7,-32.8,19.6,1.8,-32.3,0.47,1.92,-21.2,25.8
2016-12-24 00:04:00,0.0,1.97564,0.00037,411.976,0.037,0.0465,0.0016,140.000,45.000,31782.12267,1.97656,412.205,34.001,45.072,45.000,0.00,0.06,-272.88,-272.91,-4,536,-949,19.2,1.7,-32.9,19.6,1.8,-32.3,0.47,1.92,-21.2,25.9
2016-12-24 00:05:00,0.0,1.97572,0.00051,411.968,0.033,0.0465,0.0014,140.000,45.000,31782.46653,1.97661,412.200,34.000,45.072,45.000,0.00,0.06,-272.88,-272.91,-4,536,-949,19.2,1.7,-33.0,19.6,1.7,-32.4,0.47,1.93,-21.2,25.8
2016-12-24 00:06:00,0.0,1.97572,0.00032,411.956,0.029,0.0459,0.0015,139.997,45.000,31781.57054,1.97662,412.183,34.001,45.072,45.000,0.00,0.06,-272.88,-272.91,-4,536,-949,19.2,1.7,-33.1,19.6,1.7,-32.5,0.47,1.93,-21.2,25.8
2016-12-24 00:07:00,0.0,1.97578,0.00037,411.958,0.030,0.0454,0.0022,139.997,45.000,31782.66714,1.97668,412.183,34.000,45.072,45.000,0.00,0.06,-272.89,-272.91,-4,536,-949,19.2,1.7,-33.2,19.6,1.7,-32.5,0.47,1.93,-21.2,25.9
2016-12-24 00:08:00,0.0,1.97568,0.00032,411.934,0.030,0.0447,0.0012,140.001,45.000,31782.28305,1.97655,412.155,34.000,45.072,45.000,0.00,0.06,-272.89,-272.92,-4,536,-949,19.2,1.7,-33.3,19.6,1.7,-32.6,0.47,1.95,-21.3,25.8
2016-12-24 00:09:00,0.0,1.97565,0.00035,411.948,0.045,0.0442,0.0021,139.995,45.000,31780.30935,1.97650,412.167,33.984,45.072,45.000,0.00,0.06,-272.86,-272.92,-4,536,-949,19.2,1.6,-33.4,19.6,1.7,-32.9,0.47,1.95,-21.2,25.8
2016-12-24 00:10:00,0.0,1.97558,0.00042,411.936,0.031,0.0440,0.0014,140.001,45.000,31782.68964,1.97642,412.154,33.948,45.072,45.000,0.00,0.06,-272.89,-272.92,-4,536,-949,19.2,1.6,-33.6,19.6,1.7,-33.0,0.47,1.94,-21.2,25.9
2016-12-24 00:11:00,0.0,1.97553,0.00042,411.897,0.032,0.0429,0.0012,140.000,45.000,31779.64502,1.97640,412.110,33.962,45.072,45.000,0.00,0.06,-272.89,-272.92,-4,536,-949,19.2,1.6,-33.8,19.6,1.6,-33.0,0.47,1.95,-21.2,25.9
2016-12-24 00:12:00,0.0,1.97570,0.00043,411.932,0.036,0.0441,0.0016,140.000,45.000,31778.88701,1.97654,412.150,33.951,45.072,45.000,0.00,0.06,-272.88,-272.91,-4,536,-949,19.2,1.6,-33.8,19.6,1.6,-33.2,0.47,1.95,-21.2,25.8
2016-12-24 00:13:00,0.0,1.97577,0.00034,411.945,0.033,0.0436,0.0016,140.000,45.000,31779.10650,1.97660,412.161,33.951,45.072,45.000,0.00,0.06,-272.88,-272.91,-4,536,-949,19.2,1.6,-33.8,19.6,1.6,-33.2,0.47,1.95,-21.3,25.9
2016-12-24 00:14:00,0.0,1.97506,0.00052,411.903,0.031,0.0428,0.0019,139.997,45.000,31781.99034,1.97592,412.115,33.957,45.072,45.000,0.00,0.06,-272.88,-272.92,-4,536,-949,19.2,1.6,-33.8,19.6,1.6,-33.1,0.47,1.96,-21.2,25.9
2016-12-24 00:15:00,0.0,1.97487,0.00033,411.882,0.023,0.0429,0.0015,140.000,45.000,31782.01571,1.97571,412.094,33.980,45.072,45.000,0.00,0.06,-272.89,-272.91,-4,536,-949,19.2,1.6,-33.8,19.6,1.6,-33.3,0.47,1.96,-21.2,25.9
2016-12-24 00:16:00,0.0,1.97509,0.00038,411.874,0.031,0.0435,0.0020,140.002,45.000,31781.35045,1.97594,412.089,33.981,45.072,45.000,0.00,0.06,-272.87,-272.90,-4,536,-949,19.2,1.6,-33.8,19.6,1.6,-33.2,0.47,1.95,-21.3,25.9
2016-12-24 00:17:00,0.0,1.97502,0.00035,411.875,0.021,0.0442,0.0018,140.001,45.000,31781.25163,1.97588,412.094,33.976,45.072,45.000,0.00,0.06,-272.89,-272.92,-4,536,-949,19.2,1.6,-33.6,19.6,1.7,-33.0,0.47,1.96,-21.3,25.9
2016-12-24 00:18:00,0.0,1.97484,0.00035,411.885,0.043,0.0448,0.0017,140.002,45.000,31782.04918,1.97571,412.106,33.985,45.072,45.000,0.00,0.06,-272.89,-272.92,-4,536,-949,19.2,1.6,-33.4,19.6,1.7,-33.0,0.47,1.95,-21.2,25.9
2016-12-24 00:19:00,0.0,1.97489,0.00044,411.867,0.027,0.0459,0.0016,139.999,45.000,31779.64984,1.97580,412.094,34.000,45.072,45.000,0.00,0.06,-272.87,-272.89,-4,536,-949,19.2,1.6,-33.3,19.6,1.7,-32.8,0.47,1.95,-21.2,25.9
2016-12-24 00:20:00,0.0,1.97461,0.00037,411.860,0.035,0.0453,0.0019,140.001,45.000,31780.28512,1.97550,412.085,34.000,45.072,45.000,0.00,0.06,-272.89,-272.92,-4,536,-949,19.2,1.7,-33.2,19.6,1.7,-32.8,0.47,1.94,-21.2,25.9
2016-12-24 00:21:00,0.0,1.97401,0.00041,411.815,0.033,0.0450,0.0015,139.999,45.000,31781.00678,1.97489,412.039,34.001,45.072,45.000,0.00,0.07,-272.88,-272.91,-4,536,-949,19.2,1.6,-33.3,19.6,1.7,-32.8,0.47,1.94,-21.2,25.9
2016-12-24 00:22:00,0.0,1.97412,0.00031,411.819,0.045,0.0453,0.0022,140.001,45.000,31781.72441,1.97501,412.044,34.004,45.072,45.000,0.00,0.06,-272.90,-272.91,-4,536,-949,19.2,1.6,-33.4,19.6,1.7,-32.8,0.47,1.94,-21.2,25.9
2016-12-24 00:23:00,0.0,1.97404,0.00041,411.799,0.039,0.0444,0.0019,139.998,45.000,31780.72439,1.97492,412.018,34.000,45.072,45.000,0.00,0.06,-272.87,-272.90,-4,536,-949,19.2,1.6,-33.5,19.6,1.7,-32.8,0.47,1.93,-21.2,25.9
2016-12-24 00:24:00,0.0,1.97396,0.00043,411.803,0.041,0.0444,0.0014,139.999,45.000,31782.62532,1.97482,412.023,33.998,45.072,45.000,0.00,0.06,-272.90,-272.90,-4,536,-949,19.2,1.6,-33.6,19.6,1.7,-32.9,0.47,1.93,-21.2,25.9
2016-12-24 00:25:00,0.0,1.97381,0.00039,411.786,0.038,0.0440,0.0013,139.997,45.000,31781.95067,1.97467,412.005,33.975,45.072,45.000,0.00,0.07,-272.88,-272.92,-4,536,-949,19.2,1.6,-33.6,19.6,1.7,-33.0,0.47,1.93,-21.2,25.9
2016-12-24 00:26:00,0.0,1.97379,0.00052,411.745,0.039,0.0452,0.0020,140.001,45.000,31781.48893,1.97466,411.969,33.957,45.072,45.000,0.00,0.06,-272.88,-272.89,-4,536,-949,19.2,1.6,-33.4,19.6,1.7,-32.9,0.47,1.92,-21.2,25.9
2016-12-24 00:27:00,0.0,1.97380,0.00048,411.751,0.031,0.0467,0.0020,140.000,45.000,31782.97782,1.97470,411.982,33.962,45.072,45.000,0.00,0.06,-272.89,-272.91,-4,536,-949,19.2,1.7,-32.9,19.6,1.7,-32.6,0.47,1.92,-21.2,25.9
2016-12-24 00:28:00,0.0,1.97342,0.00038,411.721,0.029,0.0481,0.0019,139.997,45.000,31782.06066,1.97438,411.959,33.941,45.072,45.000,0.00,0.07,-272.88,-272.90,-4,536,-949,19.2,1.7,-32.7,19.6,1.8,-32.3,0.47,1.93,-21.2,25.9
2016-12-24 00:29:00,0.0,1.97359,0.00031,411.697,0.030,0.0487,0.0016,140.002,45.000,31783.49809,1.97453,411.937,33.958,45.072,45.000,0.00,0.06,-272.87,-272.89,-5,536,-949,19.2,1.8,-32.6,19.6,1.8,-32.2,0.47,1.92,-21.2,25.9
2016-12-24 00:30:00,0.0,1.97335,0.00044,411.696,0.036,0.0486,0.0015,139.995,45.000,31781.82912,1.97427,411.936,33.949,45.072,45.000,0.00,0.06,-272.87,-272.91,-4,536,-949,19.2,1.8,-32.6,19.6,1.8,-32.1,0.47,1.92,-21.2,25.9
2016-12-24 00:31:00,0.0,1.97346,0.00038,411.690,0.051,0.0484,0.0015,140.001,45.000,31783.49411,1.97441,411.930,33.941,45.072,45.000,0.00,0.06,-272.88,-272.90,-4,536,-949,19.2,1.8,-32.6,19.6,1.8,-32.0,0.47,1.92,-21.3,25.9
2016-12-24 00:32:00,0.0,1.97293,0.00043,411.650,0.033,0.0491,0.0021,140.000,45.000,31783.54913,1.97390,411.894,33.952,45.072,45.000,0.00,0.06,-272.86,-272.88,-4,536,-949,19.2,1.8,-32.6,19.6,1.8,-32.0,0.47,1.92,-21.2,25.9
2016-12-24 00:33:00,0.0,1.97264,0.00028,411.616,0.037,0.0483,0.0017,139.999,45.000,31784.04209,1.97359,411.855,33.947,45.072,45.000,0.00,0.07,-272.90,-272.89,-4,536,-949,19.2,1.8,-32.5,19.6,1.8,-32.0,0.47,1.92,-21.2,25.9
2016-12-24 00:34:00,0.0,1.97276,0.00039,411.630,0.031,0.0481,0.0019,140.001,45.000,31784.15576,1.97367,411.868,33.943,45.072,45.000,0.00,0.06,-272.91,-272.93,-4,536,-949,19.2,1.8,-32.4,19.6,1.8,-32.0,0.47,1.93,-21.2,25.9
2016-12-24 00:35:00,0.0,1.97283,0.00026,411.643,0.031,0.0489,0.0013,139.997,45.000,31782.04334,1.97378,411.885,33.940,45.072,45.000,0.00,0.06,-272.89,-272.93,-4,536,-949,19.2,1.8,-32.4,19.6,1.8,-32.0,0.47,1.93,-21.3,25.9
2016-12-24 00:36:00,0.0,1.97314,0.00034,411.667,0.034,0.0483,0.0017,139.998,45.000,31781.44254,1.97407,411.904,33.938,45.072,45.000,0.00,0.06,-272.86,-272.89,-4,536,-949,19.2,1.8,-32.4,19.6,1.8,-31.9,0.47,1.93,-21.3,25.9
2016-12-24 00:37:00,0.0,1.97316,0.00040,411.673,0.028,0.0493,0.0016,139.997,45.000,31780.82353,1.97412,411.918,33.938,45.072,45.000,0.00,0.06,-272.89,-272.91,-4,536,-949,19.2,1.8,-32.5,19.6,1.8,-31.9,0.47,1.94,-21.2,25.9
2016-12-24 00:38:00,0.0,1.97305,0.00036,411.668,0.028,0.0476,0.0011,139.999,45.000,31782.01744,1.97399,411.904,33.938,45.072,45.000,0.00,0.06,-272.86,-272.90,-4,536,-949,19.2,1.8,-32.6,19.6,1.8,-32.0,0.47,1.94,-21.3,25.9
2016-12-24 00:39:00,0.0,1.97285,0.00038,411.654,0.032,0.0490,0.0020,140.000,45.000,31783.62306,1.97381,411.898,33.940,45.072,45.000,0.00,0.06,-272.88,-272.91,-4,536,-949,19.2,1.8,-32.5,19.6,1.8,-32.0,0.47,1.95,-21.2,25.9
2016-12-24 00:40:00,0.0,1.97299,0.00031,411.660,0.034,0.0493,0.0022,140.000,45.000,31781.87575,1.97394,411.903,33.957,45.072,45.000,0.00,0.06,-272.87,-272.92,-4,536,-949,19.2,1.8,-32.3,19.6,1.8,-31.9,0.47,1.94,-21.2,25.9
2016-12-24 00:41:00,0.0,1.97297,0.00030,411.663,0.033,0.0493,0.0018,140.000,45.000,31781.81776,1.97393,411.907,33.994,45.072,45.000,0.00,0.06,-272.88,-272.91,-4,536,-949,19.2,1.8,-32.4,19.6,1.9,-31.8,0.47,1.95,-21.2,25.9
2016-12-24 00:42:00,0.0,1.97279,0.00037,411.656,0.043,0.0477,0.0016,140.000,45.000,31783.20318,1.97371,411.893,33.996,45.072,44.999,0.00,0.06,-272.87,-272.90,-4,536,-949,19.2,1.8,-32.6,19.6,1.8,-32.0,0.47,1.96,-21.3,25.9
2016-12-24 00:43:00,0.0,1.97282,0.00037,411.655,0.029,0.0474,0.0022,140.000,45.000,31783.85476,1.97374,411.888,33.969,45.072,45.000,0.00,0.06,-272.88,-272.89,-4,536,-949,19.2,1.7,-32.7,19.6,1.8,-32.2,0.47,1.95,-21.3,25.9
2016-12-24 00:44:00,0.0,1.97296,0.00045,411.643,0.044,0.0483,0.0017,139.997,45.000,31783.99589,1.97390,411.883,33.943,45.072,45.000,0.00,0.06,-272.90,-272.95,-4,536,-949,19.2,1.8,-32.6,19.7,1.8,-32.1,0.47,1.96,-21.2,25.9
2016-12-24 00:45:00,0.0,1.97247,0.00039,411.627,0.038,0.0487,0.0016,139.999,45.000,31784.68880,1.97342,411.868,33.937,45.072,45.000,0.00,0.06,-272.89,-272.92,-4,536,-949,19.2,1.8,-32.6,19.6,1.8,-32.1,0.47,1.95,-21.2,25.9
2016-12-24 00:46:00,0.0,1.97278,0.00038,411.631,0.030,0.0481,0.0013,139.998,45.000,31782.09268,1.97373,411.869,33.926,45.072,45.000,0.00,0.06,-272.85,-272.90,-4,536,-949,19.2,1.8,-32.6,19.6,1.8,-32.1,0.47,1.95,-21.2,25.9
2016-12-24 00:47:00,0.0,1.97274,0.00035,411.599,0.033,0.0483,0.0019,139.997,45.000,31781.56645,1.97366,411.839,33.927,45.072,45.000,0.00,0.06,-272.92,-272.92,-4,536,-949,19.2,1.7,-32.7,19.7,1.8,-32.1,0.47,1.96,-21.2,25.9
2016-12-24 00:48:00,0.0,1.97263,0.00039,411.588,0.031,0.0472,0.0018,140.000,45.000,31782.09248,1.97355,411.821,33.936,45.072,45.000,0.00,0.06,-272.84,-272.91,-4,536,-949,19.2,1.7,-32.7,19.7,1.8,-32.1,0.47,1.95,-21.2,25.9
2016-12-24 00:49:00,0.0,1.97265,0.00031,411.572,0.032,0.0477,0.0016,139.998,45.000,31781.09259,1.97360,411.809,33.936,45.072,45.000,0.00,0.06,-272.86,-272.92,-4,536,-949,19.2,1.7,-32.7,19.6,1.8,-32.1,0.47,1.95,-21.2,25.9
2016-12-24 00:50:00,0.0,1.97250,0.00028,411.545,0.036,0.0483,0.0015,140.001,45.000,31782.93053,1.97342,411.784,33.929,45.072,45.000,0.00,0.06,-272.85,-272.89,-4,536,-949,19.2,1.8,-32.6,19.6,1.8,-32.2,0.47,1.95,-21.2,25.9
2016-12-24 00:51:00,0.0,1.97219,0.00041,411.555,0.039,0.0494,0.0015,139.998,45.000,31782.42184,1.97317,411.799,33.912,45.072,45.000,0.00,0.06,-272.89,-272.94,-5,536,-949,19.2,1.8,-32.5,19.6,1.8,-32.0,0.47,1.94,-21.2,25.9
2016-12-24 00:52:00,0.0,1.97208,0.00038,411.537,0.032,0.0485,0.0018,139.999,45.000,31783.12471,1.97301,411.777,33.923,45.072,45.000,0.00,0.06,-272.89,-272.92,-4,536,-949,19.2,1.8,-32.6,19.6,1.8,-32.0,0.47,1.94,-21.2,25.8
2016-12-24 00:53:00,0.0,1.97216,0.00043,411.528,0.032,0.0486,0.0018,139.998,45.000,31781.99769,1.97314,411.769,33.932,45.072,45.000,0.00,0.06,-272.86,-272.91,-4,536,-949,19.2,1.8,-32.6,19.6,1.8,-32.1,0.47,1.93,-21.2,25.8
2016-12-24 00:54:00,0.0,1.97249,0.00057,411.529,0.039,0.0484,0.0020,140.000,45.000,31782.45448,1.97335,411.767,33.926,45.072,45.000,0.00,0.06,-272.86,-272.90,-4,536,-949,19.2,1.8,-32.5,19.6,1.8,-32.0,0.47,1.94,-21.2,25.8
2016-12-24 00:55:00,0.0,1.97473,0.00155,411.550,0.041,0.0476,0.0018,139.998,45.000,31782.50291,1.97555,411.786,33.902,45.072,45.000,0.00,0.06,-272.89,-272.91,-4,536,-949,19.2,1.7,-32.8,19.6,1.8,-32.1,0.47,1.93,-21.2,25.8
2016-12-24 00:56:00,0.0,1.97354,0.00063,411.572,0.031,0.0460,0.0016,139.996,45.000,31780.78729,1.97449,411.800,33.913,45.072,45.000,0.00,0.06,-272.90,-272.89,-4,536,-949,19.2,1.7,-33.1,19.6,1.8,-32.4,0.47,1.94,-21.2,25.8
2016-12-24 00:57:00,0.0,1.97316,0.00070,411.518,0.035,0.0463,0.0020,140.000,45.000,31781.95035,1.97414,411.748,33.888,45.072,45.000,0.00,0.06,-272.89,-272.91,-4,536,-949,19.2,1.7,-33.1,19.6,1.7,-32.4,0.47,1.93,-21.2,25.8
2016-12-24 00:58:00,0.0,1.97224,0.00039,411.524,0.043,0.0464,0.0011,140.000,45.000,31781.01728,1.97313,411.753,33.875,45.072,45.000,0.00,0.06,-272.85,-272.91,-4,536,-949,19.2,1.7,-33.0,19.6,1.7,-32.5,0.47,1.93,-21.2,25.8
2016-12-24 00:59:00,0.0,1.97306,0.00106,411.544,0.034,0.0473,0.0017,140.000,45.000,31781.87555,1.97389,411.777,33.875,45.072,45.000,0.00,0.06,-272.88,-272.91,-4,536,-949,19.2,1.7,-33.0,19.6,1.8,-32.4,0.47,1.93,-21.2,25.9
2016-12-24 01:00:00,0.0,1.97498,0.00072,411.556,0.023,0.0467,0.0023,139.999,45.000,31781.97382,1.97590,411.788,33.894,45.072,45.000,0.00,0.06,-272.84,-272.88,-4,536,-949,19.2,1.7,-33.0,19.6,1.8,-32.4,0.47,1.93,-21.2,25.9
2016-12-24 01:01:00,0.0,1.97434,0.00052,411.576,0.046,0.0452,0.0018,139.998,45.000,31779.96278,1.97523,411.799,33.918,45.072,45.000,0.00,0.06,-272.87,-272.88,-4,536,-949,19.2,1.7,-33.2,19.6,1.7,-32.5,0.47,1.93,-21.2,25.8
2016-12-24 01:02:00,0.0,1.97360,0.00044,411.534,0.026,0.0452,0.0020,139.999,45.000,31781.71522,1.97451,411.757,33.906,45.072,45.000,0.00,0.06,-272.87,-272.96,-5,536,-949,19.2,1.7,-33.2,19.6,1.7,-32.6,0.47,1.93,-21.2,25.9
2016-12-24 01:03:00,0.0,1.97333,0.00035,411.572,0.033,0.0453,0.0019,139.996,45.000,31780.40415,1.97421,411.795,33.888,45.072,45.000,0.00,0.06,-272.87,-272.91,-4,536,-949,19.2,1.7,-33.1,19.6,1.7,-32.6,0.47,1.93,-21.2,25.8
2016-12-24 01:04:00,0.0,1.97386,0.00045,411.602,0.032,0.0460,0.0020,140.000,45.000,31779.67442,1.97476,411.828,33.874,45.072,45.000,0.00,0.07,-272.87,-272.92,-4,536,-949,19.2,1.7,-33.0,19.6,1.7,-32.5,0.47,1.93,-21.2,25.8
2016-12-24 01:05:00,0.0,1.97355,0.00048,411.587,0.034,0.0467,0.0017,139.999,45.000,31779.86764,1.97444,411.818,33.875,45.072,45.000,0.00,0.06,-272.88,-272.89,-4,536,-949,19.2,1.7,-32.9,19.6,1.7,-32.5,0.47,1.93,-21.2,25.8
2016-12-24 01:06:00,0.0,1.97317,0.00049,411.538,0.042,0.0472,0.0015,139.998,45.000,31779.47383,1.97411,411.771,33.875,45.072,45.000,0.00,0.06,-272.87,-272.91,-4,536,-949,19.2,1.7,-32.9,19.6,1.8,-32.3,0.47,1.93,-21.2,25.8
2016-12-24 01:07:00,0.0,1.97340,0.00056,411.563,0.033,0.0475,0.0022,140.001,45.000,31779.59613,1.97429,411.799,33.873,45.072,45.000,0.00,0.06,-272.88,-272.90,-4,536,-949,19.2,1.7,-32.7,19.6,1.8,-32.3,0.47,1.93,-21.2,25.8
2016-12-24 01:08:00,0.0,1.97357,0.00046,411.541,0.029,0.0473,0.0019,139.999,45.000,31781.95557,1.97451,411.775,33.857,45.072,45.000,0.00,0.06,-272.89,-272.91,-4,536,-949,19.2,1.7,-32.8,19.6,1.8,-32.3,0.47,1.94,-21.2,25.9
2016-12-24 01:09:00,0.0,1.97337,0.00053,411.554,0.024,0.0473,0.0016,139.996,45.000,31779.15446,1.97428,411.786,33.860,45.072,45.000,0.00,0.06,-272.88,-272.91,-4,536,-949,19.2,1.7,-32.8,19.6,1.8,-32.3,0.47,1.94,-21.2,25.9
2016-12-24 01:10:00,0.0,1.97326,0.00071,411.516,0.040,0.0477,0.0018,139.999,45.000,31778.01320,1.97422,411.754,33.870,45.072,45.000,0.00,0.06,-272.88,-272.91,-4,536,-949,19.2,1.7,-32.8,19.6,1.8,-32.3,0.47,1.94,-21.2,25.8
2016-12-24 01:11:00,0.0,1.97404,0.00071,411.529,0.033,0.0477,0.0012,140.000,45.000,31779.81032,1.97493,411.764,33.875,45.072,45.000,0.00,0.06,-272.88,-272.92,-4,536,-949,19.2,1.7,-32.8,19.6,1.8,-32.3,0.47,1.94,-21.2,25.9
2016-12-24 01:12:00,0.0,1.97354,0.00079,411.514,0.037,0.0471,0.0017,139.999,45.000,31779.05703,1.97450,411.748,33.875,45.072,45.000,0.00,0.06,-272.88,-272.92,-4,536,-949,19.2,1.7,-32.8,19.6,1.8,-32.3,0.47,1.95,-21.2,25.9
2016-12-24 01:13:00,0.0,1.97276,0.00037,411.472,0.026,0.0470,0.0018,139.999,45.000,31781.29465,1.97366,411.705,33.874,45.072,45.000,0.00,0.06,-272.87,-272.91,-4,536,-949,19.2,1.7,-32.9,19.6,1.8,-32.3,0.47,1.94,-21.2,25.8
2016-12-24 01:14:00,0.0,1.97273,0.00047,411.459,0.039,0.0467,0.0015,140.000,45.000,31783.81153,1.97365,411.691,33.875,45.072,45.000,0.00,0.06,-272.88,-272.91,-4,536,-949,19.2,1.7,-33.1,19.6,1.8,-32.4,0.47,1.95,-21.2,25.9
2016-12-24 01:15:00,0.0,1.97291,0.00045,411.486,0.032,0.0472,0.0015,140.001,45.000,31781.06583,1.97382,411.718,33.874,45.072,45.000,0.00,0.06,-272.89,-272.93,-4,536,-949,19.2,1.7,-33.0,19.6,1.7,-32.5,0.47,1.95,-21.2,25.8
2016-12-24 01:16:00,0.0,1.97296,0.00041,411.516,0.037,0.0474,0.0022,139.996,45.000,31781.53049,1.97387,411.751,33.872,45.072,45.000,0.00,0.06,-272.88,-272.91,-4,536,-949,19.2,1.7,-32.9,19.6,1.8,-32.4,0.47,1.95,-21.2,25.8
2016-12-24 01:17:00,0.0,1.97339,0.00051,411.495,0.038,0.0469,0.0017,140.002,45.000,31782.83131,1.97427,411.728,33.875,45.072,45.000,0.00,0.06,-272.88,-272.91,-4,536,-949,19.2,1.7,-32.8,19.6,1.8,-32.3,0.47,1.95,-21.2,25.8
2016-12-24 01:18:00,0.0,1.97343,0.00039,411.478,0.029,0.0482,0.0015,139.996,45.000,31782.80734,1.97439,411.716,33.875,45.072,45.000,0.00,0.06,-272.89,-272.93,-4,536,-949,19.2,1.7,-32.7,19.6,1.8,-32.3,0.47,1.95,-21.2,25.8
2016-12-24 01:19:00,0.0,1.97298,0.00036,411.504,0.034,0.0474,0.0018,140.000,45.000,31782.40115,1.97391,411.737,33.877,45.072,45.000,0.00,0.06,-272.88,-272.92,-4,536,-949,19.2,1.7,-32.7,19.6,1.8,-32.2,0.47,1.95,-21.2,25.8
2016-12-24 01:20:00,0.0,1.97257,0.00031,411.504,0.030,0.0481,0.0023,140.000,45.000,31782.58123,1.97353,411.742,33.878,45.072,45.000,0.00,0.06,-272.88,-272.91,-4,536,-949,19.2,1.7,-32.8,19.6,1.8,-32.2,0.47,1.95,-21.2,25.8
2016-12-24 01:21:00,0.0,1.97275,0.00037,411.476,0.040,0.0478,0.0022,139.997,45.000,31780.65232,1.97366,411.714,33.875,45.072,45.000,0.00,0.06,-272.88,-272.91,-4,536,-949,19.2,1.7,-32.8,19.6,1.8,-32.2,0.47,1.95,-21.2,25.8
2016-12-24 01:22:00,0.0,1.97244,0.00045,411.458,0.028,0.0479,0.0013,139.998,45.000,31779.29037,1.97336,411.694,33.875,45.072,45.000,0.00,0.06,-272.88,-272.92,-4,536,-949,19.2,1.8,-32.6,19.6,1.8,-32.2,0.47,1.95,-21.2,25.8
2016-12-24 01:23:00,0.0,1.97245,0.00037,411.455,0.027,0.0477,0.0018,139.998,45.000,31780.73685,1.97337,411.691,33.876,45.072,45.000,0.00,0.06,-272.87,-272.91,-4,536,-949,19.2,1.8,-32.6,19.6,1.8,-32.1,0.47,1.94,-21.2,25.8
2016-12-24 01:24:00,0.0,1.97263,0.00042,411.435,0.034,0.0478,0.0017,140.000,45.000,31781.83306,1.97356,411.672,33.888,45.072,45.000,0.00,0.06,-272.88,-272.91,-4,536,-949,19.2,1.8,-32.5,19.6,1.8,-32.1,0.47,1.95,-21.2,25.8
2016-12-24 01:25:00,0.0,1.97301,0.00036,411.449,0.032,0.0477,0.0020,139.996,45.000,31780.00586,1.97393,411.683,33.896,45.072,45.000,0.00,0.06,-272.88,-272.91,-4,536,-949,19.2,1.8,-32.6,19.6,1.8,-32.2,0.47,1.95,-21.2,25.8
2016-12-24 01:26:00,0.0,1.97325,0.00046,411.446,0.032,0.0474,0.0021,140.000,45.000,31780.67582,1.97418,411.682,33.894,45.072,45.000,0.00,0.06,-272.88,-272.92,-4,536,-949,19.1,1.8,-32.7,19.6,1.8,-32.2,0.47,1.94,-21.2,25.8
2016-12-24 01:27:00,0.0,1.97269,0.00042,411.416,0.030,0.0476,0.0019,139.999,45.000,31781.46054,1.97360,411.650,33.878,45.072,45.000,0.00,0.06,-272.87,-272.91,-4,536,-949,19.2,1.7,-32.8,19.6,1.8,-32.2,0.47,1.94,-21.2,25.8
2016-12-24 01:28:00,0.0,1.97311,0.00040,411.436,0.036,0.0470,0.0018,140.000,45.000,31779.65022,1.97404,411.670,33.880,45.072,45.000,0.00,0.06,-272.89,-272.92,-4,536,-949,19.2,1.7,-32.8,19.6,1.8,-32.2,0.47,1.94,-21.2,25.8
2016-12-24 01:29:00,0.0,1.97291,0.00034,411.439,0.029,0.0472,0.0013,139.997,45.000,31779.19403,1.97382,411.672,33.876,45.072,45.000,0.00,0.06,-272.89,-272.92,-4,536,-949,19.2,1.7,-32.7,19.6,1.8,-32.3,0.47,1.94,-21.2,25.8
2016-12-24 01:30:00,0.0,1.97241,0.00041,411.420,0.032,0.0471,0.0015,140.000,45.000,31780.48295,1.97333,411.654,33.875,45.072,45.000,0.00,0.06,-272.88,-272.91,-4,536,-949,19.2,1.7,-32.7,19.6,1.8,-32.2,0.47,1.93,-21.2,25.8
2016-12-24 01:31:00,0.0,1.97264,0.00029,411.430,0.035,0.0484,0.0018,139.998,45.000,31780.20810,1.97357,411.669,33.875,45.072,45.000,0.00,0.06,-272.88,-272.92,-4,536,-949,19.2,1.8,-32.6,19.6,1.8,-32.2,0.47,1.93,-21.2,25.8
2016-12-24 01:32:00,0.0,1.97275,0.00030,411.446,0.029,0.0481,0.0018,139.999,45.000,31781.46417,1.97367,411.683,33.879,45.072,45.000,0.00,0.06,-272.88,-272.92,-4,536,-949,19.2,1.8,-32.6,19.6,1.8,-32.2,0.47,1.93,-21.2,25.8
2016-12-24 01:33:00,0.0,1.97304,0.00029,411.436,0.037,0.0478,0.0017,139.997,45.000,31780.56203,1.97397,411.672,33.910,45.072,45.000,0.00,0.06,-272.88,-272.90,-4,536,-949,19.2,1.8,-32.6,19.6,1.8,-32.2,0.47,1.93,-21.2,25.8
2016-12-24 01:34:00,0.0,1.97281,0.00055,411.433,0.034,0.0482,0.0018,140.000,45.000,31782.51184,1.97375,411.672,33.934,45.072,45.000,0.00,0.06,-272.88,-272.90,-4,536,-949,19.2,1.8,-32.6,19.6,1.8,-32.2,0.47,1.93,-21.2,25.8
2016-12-24 01:35:00,0.0,1.97339,0.00029,411.435,0.037,0.0486,0.0019,139.998,45.000,31779.28135,1.97430,411.674,33.938,45.072,45.000,0.00,0.06,-272.89,-272.91,-4,536,-949,19.2,1.8,-32.6,19.6,1.8,-32.2,0.47,1.93,-21.2,25.8
2016-12-24 01:36:00,0.0,1.97385,0.00052,411.450,0.034,0.0482,0.0018,139.998,45.000,31780.45524,1.97479,411.688,33.942,45.072,45.000,0.00,0.06,-272.88,-272.91,-4,536,-949,19.2,1.8,-32.6,19.6,1.8,-32.2,0.47,1.93,-21.2,25.8
2016-12-24 01:37:00,0.0,1.97422,0.00044,411.470,0.033,0.0469,0.0017,139.999,45.000,31779.41555,1.97511,411.702,33.943,45.072,45.000,0.00,0.06,-272.88,-272.91,-4,536,-949,19.2,1.7,-32.8,19.6,1.8,-32.2,0.47,1.93,-21.2,25.8
2016-12-24 01:38:00,0.0,1.97352,0.00056,411.471,0.044,0.0458,0.0015,140.000,45.000,31779.30160,1.97446,411.698,33.936,45.072,45.000,0.00,0.06,-272.88,-272.91,-4,536,-949,19.2,1.7,-33.0,19.6,1.8,-32.4,0.47,1.92,-21.2,25.8
2016-12-24 01:39:00,0.0,1.97303,0.00042,411.436,0.025,0.0470,0.0016,139.997,45.000,31781.68049,1.97394,411.668,33.937,45.072,45.000,0.00,0.06,-272.88,-272.91,-4,536,-949,19.2,1.7,-33.1,19.6,1.7,-32.5,0.47,1.93,-21.2,25.8
2016-12-24 01:40:00,0.0,1.97296,0.00031,411.428,0.027,0.0465,0.0018,140.000,45.000,31782.41874,1.97385,411.658,33.937,45.072,45.000,0.00,0.06,-272.87,-272.92,-4,535,-949,19.2,1.7,-33.1,19.6,1.7,-32.5,0.47,1.92,-21.2,25.8
2016-12-24 01:41:00,0.0,1.97286,0.00041,411.425,0.024,0.0473,0.0019,139.999,45.000,31784.83645,1.97377,411.659,33.934,45.072,45.000,0.00,0.06,-272.88,-272.91,-4,536,-949,19.2,1.7,-32.8,19.6,1.8,-32.4,0.47,1.93,-21.2,25.8
2016-12-24 01:42:00,0.0,1.97290,0.00033,411.421,0.023,0.0483,0.0014,139.999,45.000,31784.81413,1.97386,411.660,33.931,45.072,45.000,0.00,0.06,-272.88,-272.91,-4,536,-949,19.2,1.8,-32.6,19.6,1.8,-32.2,0.47,1.93,-21.2,25.8
2016-12-24 01:43:00,0.0,1.97291,0.00045,411.439,0.024,0.0498,0.0015,139.998,45.000,31782.59979,1.97386,411.685,33.913,45.072,45.000,0.00,0.06,-272.87,-272.91,-4,536,-949,19.2,1.8,-32.4,19.6,1.8,-32.0,0.47,1.93,-21.2,25.8
2016-12-24 01:44:00,0.0,1.97277,0.00032,411.404,0.031,0.0499,0.0015,140.001,45.000,31782.82828,1.97376,411.651,33.887,45.072,45.000,0.00,0.06,-272.88,-272.91,-4,536,-949,19.2,1.8,-32.3,19.6,1.9,-31.8,0.47,1.94,-21.2,25.8
2016-12-24 01:45:00,0.0,1.97273,0.00034,411.408,0.026,0.0502,0.0019,139.997,45.000,31781.81283,1.97371,411.658,33.886,45.072,45.000,0.00,0.06,-272.89,-272.92,-4,536,-949,19.2,1.8,-32.3,19.6,1.9,-31.8,0.47,1.93,-21.2,25.8